This demonstration page uses our WeatherBlox Daily Observations layout. Learn more.

Left ArrowRight Arrow

47.50024, -111.30081

Hourly Observations for March 5, 2017

Temp ( °F °C ) Dew Point ( °F °C ) Humidity (%) Winds ( mph kmh ) Pressure ( in mb ) Visibility ( mi km ) Precip ( " mm )
12:53 am 00:53 Clear 37 2.8 26 -3.3 65 65 S 13 20 29.50 999 10 16 0.00 0.00
1:53 am 01:53 Clear 37 2.8 23 -5 57 57 SSW 12 19 29.48 998 10 16 0.00 0.00
2:53 am 02:53 Clear 36 2.2 22 -5.6 57 57 WSW 8 13 29.47 998 10 16 0.00 0.00
3:10 am 03:10 Mostly Clear 30 -1 25 -4 80 80 N 17 28 29.59 1002 0 0 0.00 0.00
3:17 am 03:17 Mostly Cloudy with Mist and Fog 28 -2.2 26 -3.3 92 92 NNW 14 22 29.59 1002 0 0 0.00 0.00
3:28 am 03:28 Mostly Cloudy with Mist and Fog 27 -3 25 -4 93 93 NNW 16 26 29.62 1003 1 2 0.00 0.00
3:43 am 03:43 Cloudy with Mist and Fog 26 -3.3 24 -4.4 92 92 NNW 14 22 29.62 1003 4 6 0.00 0.00
3:53 am 03:53 Cloudy with Mist and Fog 25 -3.9 23 -5 92 92 NNW 13 20 29.54 1001 5 8 0.00 0.00
4:28 am 04:28 Mostly Cloudy 25 -4 21 -6 86 86 NNE 5 7 29.62 1003 7 11 0.00 0.00
4:53 am 04:53 Clear 23 -5 21 -6.1 92 92 E 6 9 29.57 1001 8 13 0.00 0.00
5:25 am 05:25 Partly Cloudy with Mist and Fog 24 -4.4 22 -5.6 91 91 ESE 10 17 29.62 1003 2 3 0.00 0.00
5:35 am 05:35 Mostly Cloudy with Mist and Fog 24 -4.4 22 -5.6 91 91 ESE 10 17 29.62 1003 2 3 0.00 0.00
5:53 am 05:53 Cloudy with Mist and Fog 25 -3.9 23 -5 92 92 ESE 9 15 29.54 1000 2 3 0.00 0.00
6:14 am 06:14 Cloudy with Mist and Fog 27 -3 25 -4 93 93 ESE 12 19 29.62 1003 0 0 0.00 0.00
6:53 am 06:53 Mostly Cloudy with Freezing Fog 26 -3.3 25 -3.9 96 96 E 3 6 29.53 1000 0 0 0.00 0.00
7:53 am 07:53 Mostly Cloudy with Freezing Fog 27 -2.8 26 -3.3 96 96 Calm 29.52 1000 5 8 0.00 0.00
8:53 am 08:53 Mostly Cloudy with Freezing Fog 27 -2.8 25 -3.9 92 92 NNW 9 15 29.52 1000 5 8 0.00 0.00
9:53 am 09:53 Mostly Cloudy with Freezing Fog 24 -4.4 22 -5.6 91 91 NNW 15 24 29.55 1001 0 0 0.00 0.00
10:24 am 10:24 Cloudy with Mist and Fog 21 -6 19 -7 93 93 NNW 15 24 29.65 1004 2 3 0.00 0.00
10:53 am 10:53 Cloudy with Mist and Fog 22 -5.6 20 -6.7 92 92 N 9 15 29.59 1002 3 4 0.00 0.00
11:08 am 11:08 Cloudy with Mist and Fog 21 -6 19 -7 93 93 NNE 7 11 29.65 1004 3 5 0.00 0.00
11:18 am 11:18 Cloudy with Mist and Fog 23 -5 21 -6 93 93 NNE 6 9 29.65 1004 3 5 0.00 0.00
11:43 am 11:43 Cloudy 23 -5 21 -6.1 92 92 E 3 6 29.65 1004 8 13 0.00 0.00
11:53 am 11:53 Cloudy 23 -5 21 -6.1 92 92 ESE 5 7 29.58 1002 8 13 0.00 0.00
12:53 pm 12:53 Cloudy with Mist and Fog 25 -3.9 23 -5 92 92 Calm 29.54 1001 3 5 0.00 0.00
1:28 pm 13:28 Cloudy with Light Snow 27 -3 25 -4 93 93 NNW 7 11 29.59 1002 2 3 0.00 0.00
1:38 pm 13:38 Cloudy with Light Snow 27 -3 25 -4 93 93 N 7 11 29.59 1002 4 6 0.00 0.00
1:53 pm 13:53 Cloudy with Light Snow 25 -3.9 22 -5.6 88 88 N 9 15 29.52 1000 5 8 0.00 0.03
2:31 pm 14:31 Cloudy with Light Snow 25 -3.9 22 -5.6 88 88 N 9 15 29.59 1002 1 2 0.00 0.03
2:44 pm 14:44 Cloudy with Light Snow 25 -4 21 -6 86 86 N 10 17 29.59 1002 3 5 0.00 0.00
2:53 pm 14:53 Cloudy with Light Snow 24 -4.4 21 -6.1 88 88 N 10 17 29.53 1000 6 10 0.01 0.25
3:53 pm 15:53 Cloudy 22 -5.6 18 -7.8 85 85 NNW 14 22 29.58 1002 10 16 0.00 0.03
4:38 pm 16:38 Cloudy with Light Snow 21 -6 18 -8 86 86 NNW 12 19 29.65 1004 1 2 0.00 0.00
4:53 pm 16:53 Cloudy with Light Snow 20 -6.7 17 -8.3 89 89 NNW 10 17 29.62 1003 1 2 0.01 0.25
4:59 pm 16:59 Cloudy with Light Snow 20 -6.7 17 -8.3 89 89 NNW 12 19 29.68 1005 1 1 0.00 0.03
5:15 pm 17:15 Cloudy with Light Snow 20 -6.7 17 -8.3 89 89 N 10 17 29.68 1005 2 3 0.00 0.03
5:24 pm 17:24 Cloudy 19 -7 18 -8 93 93 NNE 5 7 29.68 1005 8 13 0.00 0.00
5:36 pm 17:36 Cloudy 19 -7 18 -8 93 93 N 7 11 29.71 1006 10 16 0.00 0.00
5:53 pm 17:53 Cloudy 20 -6.7 17 -8.3 89 89 NNW 9 15 29.62 1003 10 16 0.00 0.03
6:05 pm 18:05 Cloudy 20 -6.7 17 -8.3 89 89 N 6 9 29.68 1005 10 16 0.00 0.00
6:19 pm 18:19 Cloudy 19 -7.2 16 -8.9 88 88 N 8 13 29.68 1005 10 16 0.00 0.00
6:53 pm 18:53 Cloudy 19 -7.2 16 -8.9 88 88 NW 10 17 29.62 1003 10 16 0.00 0.00
7:30 pm 19:30 Cloudy 19 -7 16 -9 86 86 NW 13 20 29.68 1005 10 16 0.00 0.00
7:45 pm 19:45 Cloudy 18 -7.8 15 -9.4 88 88 NW 12 19 29.71 1006 10 16 0.00 0.00
7:53 pm 19:53 Cloudy 18 -7.8 15 -9.4 88 88 NW 13 20 29.65 1004 10 16 0.00 0.00
8:53 pm 20:53 Cloudy 17 -8.3 14 -10 88 88 N 10 17 29.67 1005 10 16 0.00 0.00
9:53 pm 21:53 Cloudy 17 -8.3 13 -10.6 84 84 Calm 29.69 1006 10 16 0.00 0.00
10:53 pm 22:53 Cloudy 17 -8.3 13 -10.6 84 84 NNW 3 6 29.69 1005 10 16 0.00 0.00
11:53 pm 23:53 Cloudy 17 -8.3 13 -10.6 84 84 SW 5 7 29.70 1006 10 16 0.00 0.00

Powered by AerisWeather